Terminal Aerodrome Forecast
Issued by NWS Sioux Falls, SD

Home | Current Version | Previous Version | Text Only | Print | Product List | Glossary On
Versions: 1 2 3 4 5 6 7 8 9 10 11 12 13 14 15 16 17 18 19 20 21 22 23 24 25 26 27 28 29 30 31 32 33 34 35 36 37 38
000
FTUS43 KFSD 302229 AAB
TAFSUX
TAF AMD
KSUX 302229Z 3022/0118 15012G18KT P6SM BKN015
      TEMPO 3023/0102 SCT015 BKN080
     FM010200 15008KT P6SM BKN015 BKN080
     FM011600 17007KT P6SM SCT012 OVC090=

USA.gov is the U.S. government's official web portal to all federal, state and local government web resources and services.